Unicom:                    122.8

AWOS:                  118.275

Elevation           1458’ MSL

TPA:                   2500’ MSL

06/24:         5003’ L   75’ W

PAPI:       06/Left     24/Left

(Operate lights on unicom freq.)

Traffic Pattern: Left

Beacon: Sunset to Sunrise

Windsock: yes, lighted

Segmented Circle: No

 

Cleveland Center: 126.72/291.65

FSS: Altoona

[Source: ADDS]
METAR
KFKL 141056Z AUTO 07005KT 10SM CLR 18/15 A3011 RMK AO2 SLP186 T01780150 =
KFKL 141120Z 1412/1512 09004KT P6SM SCT180 FM142300 07007KT P6SM BKN070 FM150300 10003KT P6SM BKN080
TAF
KFKL 140520Z 1406/1506 10005KT P6SM BKN250 FM141600 09008KT P6SM SCT040 FM150000 09005KT P6SM BKN200 =
[Source: ADDS]
METAR
KDUJ 141053Z AUTO 09004KT 10SM CLR 17/13 A3011 RMK AO2 SLP183 T01670133 $ =
KDUJ 140520Z 1406/1506 08005KT P6SM BKN250 FM141600 09005KT P6SM SCT040 FM150000 08005KT P6SM BKN200
TAF
KDUJ 140520Z 1406/1506 08005KT P6SM BKN250 FM141600 09005KT P6SM SCT040 FM150000 08005KT P6SM BKN200 =

Welcome to Clarion County Airport.

We look forward to serving all of your aviation needs.


Clarion County Airport is a General Aviation, Business Class airport serving the Clarion County Area in Central Western Pennsylvania.  Our 5,003' asphalt runway and gps approaches are capable of serving most of the general aviation fleet in most weather conditions.


If you are planning a fuel stop while flying in Western Pennsylvania, consider paying us a visit. Our prices are some of the lowest in the state Check prices here ----> www.airnav.com/fuel and enter identifier KAXQ or see current prices below. We can have you fueled and taxiing out to the runway in about 10 minutes. Our current hours of operation are Monday- Sunday 8:00AM-4:00PM. Holiday closures are Christmas Day and Thanksgiving. If you require use of the facilities during the holidays or after hours please call ahead and someone will be there to assist you.


- Airport Manager -  


                             CURRENT FUEL PRICES AS OF 5/14/2020      JET-A w/additive    $3.50               100LL     $4.50 CC  


                              Self Service fueling available 24/7, credit card reader enabled. Center point fueling available upon request.

                                                           For after hours fueling assistance please contact 814-282-6001.